Weather History for Cincinnati, OH

Change the Weather History Date:

Sunday, February 3, 2013

  Actual Average Record
Temperature  
Mean Temperature 24 °F -  
Max Temperature 28 °F 39 °F 62 °F (1991)
Min Temperature 19 °F 23 °F -9 °F (1951)
Degree Days  
Heating Degree Days 42    
Moisture  
Dew Point 17 °F    
Average Humidity 75    
Maximum Humidity 86    
Minimum Humidity 68    
Precipitation  
Precipitation 0.00 in - - ()
Sea Level Pressure  
Sea Level Pressure 30.05 in    
Wind  
Wind Speed 9 mph (West)    
Max Wind Speed 16 mph    
Max Gust Speed 24 mph    
Visibility 8 miles    
Events Snow    
Averages and records for this station are not official NWS values.
T = Trace of Precipitation, MM = Missing Value Source: NWS Daily Summary

Daily Weather History Graph

Daily Weather History Graph

Search for Another Location

Airport:

Trip Planner

Search our weather history database for the weather conditions in past years. The results will help you decide how hot, cold, wet, or windy it might be!

Date:

Astronomy

Feb. 03, 2013 Rise Set
Actual Time 7:42 AM EST 6:01 PM EST
Civil Twilight 7:14 AM EST 6:29 PM EST
Nautical Twilight 6:42 AM EST 7:01 PM EST
Astronomical Twilight 6:10 AM EST 7:32 PM EST
Moon 1:08 AM EST (2/3) 11:38 AM EST (2/3)
Length of Visible Light 11h 15m
Length of Day
10h 19m
Waning Gibbous, 49% of the Moon is Illuminated
Feb 3
Waning Gibbous
Feb 10
New
Feb 17
First Quarter
Feb 25
Full
Mar 4
Last Quarter

Hourly Weather History & Observations

Time (EST) Temp. Windchill Dew Point Humidity Pressure Visibility Wind Dir Wind Speed Gust Speed Precip Events Conditions
12:53 AM 28.9 °F 21.9 °F 21.9 °F 75% 30.05 in 10.0 mi West 6.9 mph - N/A   Overcast
1:01 AM 28.4 °F 21.2 °F 23.0 °F 80% 30.03 in 10.0 mi West 6.9 mph - N/A   Overcast
1:53 AM 28.9 °F 22.8 °F 23.0 °F 78% 30.03 in 10.0 mi WSW 5.8 mph - N/A   Overcast
2:12 AM 28.4 °F 19.1 °F 21.2 °F 74% 30.01 in 10.0 mi WSW 10.4 mph - N/A   Overcast
2:53 AM 28.0 °F 20.0 °F 21.0 °F 75% 30.01 in 10.0 mi WSW 8.1 mph - N/A   Overcast
3:10 AM 28.4 °F 19.1 °F 21.2 °F 74% 30.00 in 9.0 mi West 10.4 mph - N/A   Overcast
3:40 AM 26.6 °F 15.7 °F 19.4 °F 74% 29.99 in 9.0 mi WNW 12.7 mph - N/A   Overcast
3:53 AM 26.1 °F 16.2 °F 19.0 °F 75% 30.00 in 9.0 mi WNW 10.4 mph - N/A   Overcast
4:53 AM 24.1 °F 13.7 °F 18.0 °F 77% 29.99 in 9.0 mi WNW 10.4 mph - N/A   Overcast
5:12 AM 24.8 °F 15.3 °F 17.6 °F 74% 29.98 in 9.0 mi West 9.2 mph - N/A   Overcast
5:53 AM 23.0 °F 11.1 °F 16.0 °F 74% 29.99 in 10.0 mi West 12.7 mph - N/A   Overcast
6:07 AM 23.0 °F 11.1 °F 15.8 °F 74% 29.97 in 10.0 mi WSW 12.7 mph - N/A   Overcast
6:53 AM 21.9 °F 11.0 °F 15.1 °F 75% 29.99 in 9.0 mi West 10.4 mph - N/A   Overcast
7:53 AM 21.0 °F 9.3 °F 14.0 °F 74% 30.01 in 5.0 mi West 11.5 mph - 0.00 in Snow Light Snow
8:02 AM 21.2 °F 13.6 °F 14.0 °F 74% 29.99 in 1.5 mi West 5.8 mph - 0.00 in Snow Light Snow
8:10 AM 19.4 °F 11.5 °F 14.0 °F 80% 30.00 in 0.8 mi West 5.8 mph - 0.00 in Snow Light Snow
8:16 AM 19.4 °F 11.5 °F 15.8 °F 86% 30.00 in 2.0 mi WNW 5.8 mph - 0.00 in Snow Light Snow
8:33 AM 19.4 °F 7.9 °F 14.0 °F 80% 30.01 in 5.0 mi West 10.4 mph - 0.00 in Snow Light Snow
8:53 AM 19.9 °F 8.6 °F 14.0 °F 78% 30.03 in 5.0 mi West 10.4 mph - 0.00 in Snow Light Snow
9:53 AM 19.9 °F 10.1 °F 14.0 °F 78% 30.04 in 7.0 mi WNW 8.1 mph - 0.00 in   Overcast
10:53 AM 21.0 °F 10.6 °F 12.9 °F 71% 30.04 in 10.0 mi WNW 9.2 mph - N/A   Overcast
11:53 AM 21.9 °F 12.5 °F 12.9 °F 68% 30.04 in 10.0 mi West 8.1 mph - N/A   Overcast
12:08 PM 21.2 °F 10.9 °F 12.2 °F 68% 30.02 in 10.0 mi West 9.2 mph - N/A   Overcast
12:53 PM 23.0 °F 13.1 °F 14.0 °F 68% 30.04 in 10.0 mi West 9.2 mph - N/A   Overcast
1:53 PM 24.1 °F 12.5 °F 15.1 °F 69% 30.04 in 10.0 mi West 12.7 mph - N/A   Overcast
2:53 PM 24.1 °F 12.5 °F 16.0 °F 71% 30.06 in 10.0 mi WNW 12.7 mph 24.2 mph N/A   Overcast
3:53 PM 25.0 °F 14.2 °F 18.0 °F 75% 30.09 in 5.0 mi West 11.5 mph - 0.00 in Snow Light Snow
4:14 PM 24.8 °F 11.9 °F 19.4 °F 80% 30.08 in 4.0 mi West 16.1 mph - 0.00 in Snow Light Snow
4:53 PM 25.0 °F 15.5 °F 19.0 °F 78% 30.11 in 5.0 mi WSW 9.2 mph - 0.00 in   Haze
5:39 PM 24.8 °F 14.6 °F 19.4 °F 80% 30.10 in 4.0 mi West 10.4 mph - 0.00 in Snow Light Snow
5:53 PM 25.0 °F 15.5 °F 19.0 °F 78% 30.12 in 5.0 mi WSW 9.2 mph 20.7 mph 0.00 in Snow Light Snow
6:53 PM 26.1 °F 15.6 °F 19.0 °F 75% 30.14 in 10.0 mi West 11.5 mph - 0.00 in   Overcast
7:53 PM 26.1 °F 13.6 °F 17.1 °F 69% 30.15 in 10.0 mi West 16.1 mph - 0.00 in   Mostly Cloudy
8:53 PM 24.1 °F 13.1 °F 15.1 °F 69% 30.18 in 10.0 mi West 11.5 mph - N/A   Clear
9:53 PM 21.9 °F 15.7 °F 15.1 °F 75% 30.18 in 10.0 mi WSW 4.6 mph - N/A   Clear
10:53 PM 19.9 °F 12.1 °F 15.1 °F 81% 30.17 in 10.0 mi SW 5.8 mph - N/A   Clear
11:53 PM 19.0 °F - 15.1 °F 85% 30.17 in 9.0 mi Calm Calm - N/A   Clear